Newburgh, NY

8:34 PM EDT on September 19, 2017 (GMT -0400)
Stewart International

Weather History for KSWF - November, 2012

Change the Weather History Date:

Tuesday, November 6, 2012

  Actual Average Record
Temperature  
Mean Temperature 32 °F -  
Max Temperature 42 °F 51 °F 75 °F (2015)
Min Temperature 21 °F 33 °F 17 °F (1991)
Degree Days  
Heating Degree Days 34    
Moisture  
Dew Point 20 °F    
Average Humidity 66    
Maximum Humidity 93    
Minimum Humidity 39    
Precipitation  
Precipitation 0.00 in - - ()
Sea Level Pressure  
Sea Level Pressure 30.19 in    
Wind  
Wind Speed 2 mph (ENE)    
Max Wind Speed 9 mph    
Max Gust Speed -    
Visibility 17 miles    
Events      
Averages and records for this station are not official NWS values.
T = Trace of Precipitation, MM = Missing Value Source: NWS Daily Summary

Daily Weather History Graph

Daily Weather History Graph

Search for Another Location

Airport or City:

Trip Planner

Search our weather history database for the weather conditions in past years. The results will help you decide how hot, cold, wet, or windy it might be!

Date:

Astronomy

Nov. 06, 2012 Rise Set
Actual Time 6:34 AM EST 4:44 PM EST
Civil Twilight 6:05 AM EST 5:13 PM EST
Nautical Twilight 5:32 AM EST 5:46 PM EST
Astronomical Twilight 5:00 AM EST 6:19 PM EST
Moon 11:22 PM EST (11/6) 12:24 PM EST (11/6)
Length of Visible Light 11h 08m
Length of Day
10h 10m
Waning Gibbous, 53% of the Moon is Illuminated
Nov 6
Waning Gibbous
Nov 6
Last Quarter
Nov 13
New
Nov 20
First Quarter
Nov 28
Full

Hourly Weather History & Observations

Time (EST) Temp. Windchill Dew Point Humidity Pressure Visibility Wind Dir Wind Speed Gust Speed Precip Events Conditions
12:45 AM 26.6 °F - 21.2 °F 80% 30.20 in 20.0 mi Calm Calm - N/A   Clear
1:45 AM 24.8 °F - 21.2 °F 86% 30.20 in 20.0 mi Calm Calm - N/A   Clear
2:45 AM 24.8 °F - 21.2 °F 86% 30.20 in 20.0 mi Calm Calm - N/A   Clear
3:45 AM 23.0 °F - 19.4 °F 86% 30.18 in 20.0 mi Calm Calm - N/A   Clear
4:45 AM 23.0 °F - 19.4 °F 86% 30.19 in 20.0 mi Calm Calm - N/A   Clear
6:45 AM 21.2 °F - 19.4 °F 93% 30.21 in 20.0 mi Calm Calm - N/A   Clear
7:45 AM 24.8 °F - 21.2 °F 86% 30.24 in 20.0 mi Calm Calm - N/A   Clear
9:45 AM 35.6 °F - 21.2 °F 56% 30.25 in 20.0 mi Calm Calm - N/A   Scattered Clouds
10:50 AM 39.2 °F 35.0 °F 23.0 °F 52% 30.24 in 20.0 mi Variable 5.8 mph - N/A   Scattered Clouds
11:45 AM 39.2 °F 35.0 °F 21.2 °F 49% 30.21 in 20.0 mi Variable 5.8 mph - N/A   Scattered Clouds
12:45 PM 39.2 °F 34.2 °F 21.2 °F 49% 30.20 in 20.0 mi Variable 6.9 mph - N/A   Clear
1:45 PM 39.2 °F - 21.2 °F 49% 30.19 in 20.0 mi Calm Calm - N/A   Clear
2:45 PM 42.8 °F - 19.4 °F 39% 30.17 in 20.0 mi Calm Calm - N/A   Clear
4:45 PM 37.4 °F - 19.4 °F 48% 30.15 in 20.0 mi Calm Calm - N/A   Clear
6:45 PM 33.8 °F 29.6 °F 19.4 °F 56% 30.15 in 10.0 mi Variable 4.6 mph - N/A   Clear
7:45 PM 33.8 °F 28.6 °F 17.6 °F 52% 30.15 in 10.0 mi Variable 5.8 mph - N/A   Clear
8:45 PM 32.0 °F 24.2 °F 19.4 °F 60% 30.15 in 10.0 mi ENE 9.2 mph - N/A   Clear
10:50 PM 30.2 °F 21.9 °F 21.2 °F 69% 30.13 in 10.0 mi ENE 9.2 mph - N/A   Clear
11:45 PM 32.0 °F 24.8 °F 21.2 °F 64% 30.13 in 10.0 mi ENE 8.1 mph - N/A   Clear